| time (UTC) | temp F | wind direction | speed MPH | gust MPH | rain 1hr in | rain 24hr in | rain mn in | humidity % | barometer mb |
| 20260508092703 | 46 | 96 | 2.0 | 4.0 | 0.00 | 0.28 | 0.04 | 92 | 1015.3 |
| 20260508091803 | 45 | 88 | 1.0 | 4.0 | 0.00 | 0.28 | 0.04 | 92 | 1015.4 |
| 20260508090903 | 45 | 80 | 1.0 | 4.0 | 0.00 | 0.30 | 0.04 | 94 | 1015.4 |
| 20260508090212 | 46 | 101 | 1.0 | 3.0 | 0.00 | 0.31 | 0.04 | 94 | 1015.7 |
| 20260508085404 | 45 | 113 | 1.0 | 3.0 | 0.00 | 0.32 | 0.04 | 96 | 1015.3 |
| 20260508084503 | 45 | 72 | 1.0 | 4.0 | 0.00 | 0.33 | 0.04 | 97 | 1015.6 |
| 20260508083603 | 44 | 63 | 2.0 | 4.0 | 0.00 | 0.34 | 0.04 | 98 | 1015.4 |
| 20260508082705 | 44 | 71 | 2.0 | 4.0 | 0.00 | 0.35 | 0.04 | 99 | 1015.2 |
| 20260508081803 | 43 | 66 | 2.0 | 6.0 | 0.00 | 0.37 | 0.04 | 99 | 1015.2 |
| 20260508080905 | 44 | 75 | 1.0 | 3.0 | 0.00 | 0.38 | 0.04 | 99 | 1015.0 |
| 20260508080005 | 44 | 85 | 1.0 | 4.0 | 0.00 | 0.39 | 0.04 | 99 | 1015.1 |
| 20260508075404 | 44 | 87 | 1.0 | 4.0 | 0.00 | 0.40 | 0.04 | 99 | 1015.2 |
| 20260508074519 | 44 | 81 | 1.0 | 3.0 | 0.00 | 0.40 | 0.04 | 99 | 1015.1 |
| 20260508073603 | 44 | 107 | 1.0 | 2.0 | 0.00 | 0.41 | 0.04 | 99 | 1015.2 |
| 20260508072703 | 44 | 99 | 1.0 | 3.0 | 0.00 | 0.43 | 0.04 | 99 | 1015.0 |
| 20260508071804 | 43 | 88 | 1.0 | 3.0 | 0.00 | 0.43 | 0.04 | 99 | 1014.9 |
| 20260508070903 | 43 | 84 | 1.0 | 3.0 | 0.00 | 0.44 | 0.04 | 99 | 1015.0 |
| 20260508070006 | 43 | 67 | 1.0 | 4.0 | 0.00 | 0.44 | 0.04 | 99 | 1014.9 |
| 20260508065403 | 44 | 74 | 1.0 | 4.0 | 0.00 | 0.45 | 0.04 | 99 | 1014.9 |
| 20260508064503 | 43 | 63 | 1.0 | 3.0 | 0.00 | 0.46 | 0.04 | 99 | 1014.7 |
| 20260508063811 | 43 | 81 | 1.0 | 4.0 | 0.00 | 0.47 | 0.04 | 99 | 1014.7 |
| 20260508062705 | 43 | 56 | 2.0 | 4.0 | 0.00 | 0.50 | 0.04 | 99 | 1014.3 |
| 20260508061803 | 43 | 88 | 1.0 | 4.0 | 0.01 | 0.51 | 0.04 | 99 | 1014.4 |
| 20260508060903 | 43 | 64 | 1.0 | 4.0 | 0.01 | 0.52 | 0.04 | 99 | 1014.2 |
| 20260508060212 | 43 | 77 | 1.0 | 4.0 | 0.01 | 0.52 | 0.04 | 99 | 1014.4 |
| 20260508055611 | 43 | 64 | 2.0 | 6.0 | 0.01 | 0.53 | 0.04 | 99 | 1014.1 |
| 20260508054504 | 43 | 107 | 0.0 | 3.0 | 0.01 | 0.53 | 0.04 | 99 | 1014.2 |
| 20260508053811 | 43 | 131 | 0.0 | 2.0 | 0.02 | 0.54 | 0.04 | 99 | 1014.1 |
| 20260508052703 | 43 | 125 | 0.0 | 2.0 | 0.04 | 0.56 | 0.04 | 99 | 1014.2 |
| 20260508051804 | 43 | 112 | 0.0 | 2.0 | 0.02 | 0.56 | 0.02 | 99 | 1014.1 |
| 20260508050903 | 43 | 109 | 0.0 | 2.0 | 0.02 | 0.56 | 0.02 | 99 | 1013.8 |
| 20260508050004 | 43 | 86 | 1.0 | 4.0 | 0.02 | 0.56 | 0.02 | 99 | 1014.0 |
| 20260508045403 | 43 | 85 | 1.0 | 4.0 | 0.02 | 0.56 | 0.02 | 99 | 1013.7 |
| 20260508044519 | 43 | 114 | 1.0 | 3.0 | 0.02 | 0.56 | 0.02 | 99 | 1013.8 |
| 20260508043604 | 43 | 103 | 0.0 | 2.0 | 0.01 | 0.54 | 0.01 | 99 | 1013.9 |
| 20260508042703 | 43 | 105 | 0.0 | 3.0 | 0.00 | 0.53 | 0.00 | 99 | 1013.6 |
| 20260508041803 | 43 | 104 | 1.0 | 3.0 | 0.00 | 0.53 | 0.00 | 99 | 1013.3 |
| 20260508041111 | 43 | 90 | 1.0 | 3.0 | 0.00 | 0.54 | 0.00 | 99 | 1013.8 |
| 20260508040005 | 43 | 101 | 1.0 | 3.0 | 0.00 | 0.54 | 0.00 | 99 | 1013.6 |
| 20260508035405 | 43 | 92 | 1.0 | 3.0 | 0.00 | 0.54 | 0.00 | 99 | 1013.6 |
| 20260508034504 | 44 | 78 | 0.0 | 3.0 | 0.00 | 0.54 | 0.00 | 99 | 1013.3 |
| 20260508033811 | 44 | 127 | 0.0 | 1.0 | 0.00 | 0.54 | 0.00 | 99 | 1013.5 |
| 20260508032718 | 43 | 102 | 0.0 | 2.0 | 0.00 | 0.54 | 0.00 | 99 | 1013.3 |
| 20260508031804 | 43 | 111 | 0.0 | 2.0 | 0.00 | 0.54 | 0.00 | 99 | 1013.6 |
| 20260508030903 | 44 | 0 | 0.0 | 0.0 | 0.00 | 0.54 | 0.00 | 99 | 1013.5 |
| 20260508030005 | 44 | 112 | 0.0 | 1.0 | 0.00 | 0.54 | 0.00 | 99 | 1013.3 |
| 20260508025403 | 43 | 112 | 0.0 | 1.0 | 0.00 | 0.54 | 0.00 | 99 | 1013.3 |
| 20260508024503 | 43 | 130 | 0.0 | 1.0 | 0.00 | 0.54 | 0.00 | 99 | 1013.5 |
| 20260508023811 | 43 | 0 | 0.0 | 0.0 | 0.00 | 0.54 | 0.00 | 99 | 1013.7 |
| 20260508022703 | 44 | 0 | 0.0 | 0.0 | 0.00 | 0.54 | 0.00 | 99 | 1013.5 |
| 20260508022010 | 43 | 0 | 0.0 | 0.0 | 0.00 | 0.54 | 0.00 | 99 | 1013.5 |
| 20260508021111 | 43 | 0 | 0.0 | 0.0 | 0.00 | 0.54 | 0.00 | 99 | 1013.6 |
| 20260508020004 | 43 | 0 | 0.0 | 0.0 | 0.00 | 0.54 | 0.00 | 99 | 1013.6 |
| 20260508015403 | 43 | 0 | 0.0 | 0.0 | 0.00 | 0.54 | 0.00 | 99 | 1013.5 |
| 20260508014504 | 43 | 0 | 0.0 | 0.0 | 0.00 | 0.56 | 0.00 | 99 | 1013.3 |
| 20260508013603 | 44 | 0 | 0.0 | 0.0 | 0.00 | 0.57 | 0.00 | 99 | 1013.7 |
| 20260508012703 | 44 | 0 | 0.0 | 0.0 | 0.00 | 0.57 | 0.00 | 99 | 1013.5 |
| 20260508011803 | 43 | 122 | 0.0 | 1.0 | 0.00 | 0.57 | 0.00 | 99 | 1013.6 |
| 20260508010903 | 44 | 85 | 0.0 | 2.0 | 0.00 | 0.58 | 0.00 | 99 | 1013.7 |
| 20260508010005 | 43 | 62 | 1.0 | 3.0 | 0.00 | 0.58 | 0.00 | 99 | 1013.5 |
| 20260508005403 | 44 | 0 | 0.0 | 0.0 | 0.00 | 0.58 | 0.00 | 99 | 1013.6 |
| 20260508004503 | 44 | 132 | 0.0 | 1.0 | 0.00 | 0.58 | 0.00 | 99 | 1013.5 |
| 20260508003811 | 44 | 136 | 0.0 | 1.0 | 0.00 | 0.58 | 0.00 | 99 | 1013.6 |
| 20260508002718 | 43 | 0 | 0.0 | 0.0 | 0.00 | 0.58 | 0.00 | 99 | 1013.6 |
| 20260508001803 | 44 | 83 | 0.0 | 1.0 | 0.00 | 0.58 | 0.00 | 99 | 1013.7 |
| 20260508000903 | 44 | 106 | 0.0 | 1.0 | 0.00 | 0.58 | 0.00 | 99 | 1013.7 |
| 20260508000019 | 44 | 98 | 0.0 | 2.0 | 0.00 | 0.58 | 0.00 | 99 | 1013.7 |
| 20260507235403 | 44 | 66 | 0.0 | 2.0 | 0.00 | 0.58 | 0.00 | 99 | 1013.6 |
| 20260507234503 | 43 | 97 | 0.0 | 2.0 | 0.00 | 0.58 | 0.00 | 99 | 1013.8 |
| 20260507233603 | 44 | 97 | 0.0 | 2.0 | 0.00 | 0.58 | 0.00 | 99 | 1013.6 |
| 20260507232703 | 44 | 103 | 1.0 | 3.0 | 0.00 | 0.58 | 0.00 | 99 | 1013.8 |
| 20260507231803 | 44 | 120 | 0.0 | 1.0 | 0.00 | 0.58 | 0.00 | 99 | 1013.9 |
| 20260507230903 | 44 | 101 | 0.0 | 3.0 | 0.00 | 0.58 | 0.00 | 99 | 1014.0 |
| 20260507230212 | 44 | 0 | 0.0 | 0.0 | 0.00 | 0.58 | 0.00 | 99 | 1013.9 |
| 20260507225403 | 44 | 0 | 0.0 | 0.0 | 0.00 | 0.58 | 0.00 | 99 | 1013.6 |
| 20260507224504 | 44 | 115 | 0.0 | 2.0 | 0.00 | 0.58 | 0.00 | 99 | 1013.5 |
| 20260507223603 | 44 | 0 | 0.0 | 0.0 | 0.00 | 0.58 | 0.00 | 99 | 1013.6 |
| 20260507222703 | 44 | 0 | 0.0 | 0.0 | 0.00 | 0.58 | 0.00 | 99 | 1013.3 |
| 20260507221805 | 44 | 0 | 0.0 | 0.0 | 0.00 | 0.58 | 0.00 | 99 | 1013.7 |
| 20260507220904 | 44 | 131 | 0.0 | 1.0 | 0.00 | 0.58 | 0.00 | 99 | 1013.9 |
| 20260507220009 | 43 | 88 | 0.0 | 2.0 | 0.00 | 0.58 | 0.00 | 99 | 1013.7 |
| 20260507215403 | 43 | 82 | 1.0 | 3.0 | 0.00 | 0.58 | 0.58 | 99 | 1013.8 |
| 20260507214503 | 44 | 103 | 0.0 | 1.0 | 0.00 | 0.58 | 0.58 | 99 | 1013.7 |
| 20260507213603 | 44 | 110 | 0.0 | 1.0 | 0.00 | 0.58 | 0.58 | 99 | 1013.8 |
| 20260507212703 | 44 | 98 | 1.0 | 3.0 | 0.00 | 0.58 | 0.58 | 99 | 1013.7 |
| 20260507211804 | 44 | 87 | 0.0 | 2.0 | 0.00 | 0.58 | 0.58 | 99 | 1013.7 |
| 20260507210903 | 44 | 120 | 0.0 | 1.0 | 0.00 | 0.58 | 0.58 | 99 | 1013.7 |
| 20260507210005 | 44 | 124 | 0.0 | 1.0 | 0.00 | 0.58 | 0.58 | 99 | 1013.6 |
| 20260507205611 | 44 | 125 | 0.0 | 1.0 | 0.00 | 0.58 | 0.58 | 99 | 1013.8 |
| 20260507204504 | 44 | 106 | 0.0 | 2.0 | 0.00 | 0.58 | 0.58 | 99 | 1013.6 |
| 20260507203604 | 44 | 98 | 0.0 | 3.0 | 0.00 | 0.58 | 0.58 | 99 | 1013.6 |
| 20260507202919 | 44 | 88 | 0.0 | 2.0 | 0.00 | 0.58 | 0.58 | 99 | 1013.5 |
| 20260507201803 | 44 | 67 | 0.0 | 3.0 | 0.00 | 0.58 | 0.58 | 99 | 1013.2 |
| 20260507200905 | 44 | 102 | 0.0 | 1.0 | 0.00 | 0.58 | 0.58 | 99 | 1013.2 |
| 20260507200004 | 44 | 150 | 0.0 | 1.0 | 0.00 | 0.58 | 0.58 | 99 | 1013.2 |
| 20260507195404 | 44 | 123 | 0.0 | 2.0 | 0.00 | 0.58 | 0.58 | 99 | 1013.2 |
| 20260507194503 | 44 | 123 | 0.0 | 1.0 | 0.00 | 0.58 | 0.58 | 99 | 1013.0 |
| 20260507193603 | 44 | 0 | 0.0 | 0.0 | 0.00 | 0.58 | 0.58 | 99 | 1013.0 |
| 20260507192704 | 44 | 149 | 0.0 | 1.0 | 0.00 | 0.58 | 0.58 | 99 | 1013.0 |
| 20260507191803 | 44 | 133 | 0.0 | 1.0 | 0.00 | 0.58 | 0.58 | 99 | 1013.1 |
| 20260507190907 | 44 | 109 | 0.0 | 2.0 | 0.00 | 0.58 | 0.58 | 99 | 1013.0 |
| 20260507190006 | 44 | 127 | 0.0 | 1.0 | 0.00 | 0.58 | 0.58 | 99 | 1013.0 |
| 20260507185405 | 43 | 120 | 0.0 | 1.0 | 0.00 | 0.58 | 0.58 | 99 | 1012.7 |
| 20260507184711 | 44 | 83 | 1.0 | 3.0 | 0.00 | 0.58 | 0.58 | 99 | 1012.7 |
| 20260507183605 | 44 | 78 | 1.0 | 4.0 | 0.00 | 0.58 | 0.58 | 99 | 1012.5 |
| 20260507182703 | 44 | 105 | 0.0 | 3.0 | 0.00 | 0.58 | 0.58 | 99 | 1012.5 |
| 20260507181805 | 44 | 123 | 0.0 | 2.0 | 0.00 | 0.58 | 0.58 | 99 | 1012.5 |
| 20260507180903 | 44 | 101 | 1.0 | 2.0 | 0.00 | 0.58 | 0.58 | 99 | 1012.6 |
| 20260507180009 | 44 | 106 | 0.0 | 2.0 | 0.00 | 0.58 | 0.58 | 99 | 1012.4 |
| 20260507175403 | 44 | 90 | 1.0 | 3.0 | 0.00 | 0.58 | 0.58 | 99 | 1012.6 |
| 20260507174503 | 44 | 95 | 1.0 | 3.0 | 0.00 | 0.58 | 0.58 | 99 | 1012.2 |
| 20260507173603 | 44 | 88 | 1.0 | 4.0 | 0.00 | 0.58 | 0.58 | 99 | 1012.2 |
| 20260507172704 | 44 | 114 | 0.0 | 2.0 | 0.00 | 0.58 | 0.58 | 99 | 1012.2 |
| 20260507171805 | 44 | 109 | 0.0 | 2.0 | 0.00 | 0.58 | 0.58 | 99 | 1012.1 |
| 20260507170904 | 44 | 110 | 0.0 | 2.0 | 0.00 | 0.59 | 0.58 | 99 | 1012.0 |
| 20260507170211 | 44 | 127 | 0.0 | 1.0 | 0.00 | 0.60 | 0.58 | 99 | 1012.1 |
| 20260507165404 | 44 | 102 | 0.0 | 2.0 | 0.00 | 0.61 | 0.58 | 99 | 1011.8 |
| 20260507164503 | 44 | 78 | 1.0 | 4.0 | 0.00 | 0.63 | 0.58 | 99 | 1011.9 |
| 20260507163603 | 44 | 82 | 1.0 | 4.0 | 0.00 | 0.65 | 0.58 | 99 | 1012.0 |
| 20260507162704 | 45 | 82 | 1.0 | 3.0 | 0.00 | 0.65 | 0.58 | 99 | 1011.6 |
| 20260507161804 | 45 | 75 | 1.0 | 3.0 | 0.00 | 0.65 | 0.58 | 99 | 1011.6 |
| 20260507161111 | 45 | 88 | 1.0 | 3.0 | 0.00 | 0.65 | 0.58 | 99 | 1011.7 |
| 20260507160005 | 44 | 89 | 1.0 | 3.0 | 0.01 | 0.65 | 0.58 | 99 | 1011.8 |
| 20260507155403 | 44 | 71 | 1.0 | 3.0 | 0.01 | 0.65 | 0.58 | 99 | 1011.7 |
| 20260507154505 | 44 | 75 | 1.0 | 3.0 | 0.02 | 0.65 | 0.58 | 99 | 1011.5 |
| 20260507153604 | 44 | 68 | 2.0 | 6.0 | 0.02 | 0.65 | 0.58 | 99 | 1011.5 |
| 20260507152703 | 45 | 69 | 2.0 | 4.0 | 0.04 | 0.70 | 0.58 | 99 | 1011.3 |
| 20260507151803 | 45 | 71 | 1.0 | 4.0 | 0.06 | 0.76 | 0.58 | 99 | 1011.5 |
| 20260507150903 | 45 | 117 | 1.0 | 3.0 | 0.06 | 0.83 | 0.57 | 99 | 1011.4 |
| 20260507150004 | 45 | 60 | 2.0 | 6.0 | 0.07 | 0.84 | 0.57 | 99 | 1011.2 |
| 20260507145403 | 45 | 56 | 2.0 | 6.0 | 0.08 | 0.84 | 0.57 | 99 | 1011.5 |
| 20260507144503 | 45 | 92 | 1.0 | 4.0 | 0.07 | 0.83 | 0.56 | 99 | 1011.2 |
| 20260507143810 | 45 | 85 | 2.0 | 7.0 | 0.07 | 0.83 | 0.56 | 99 | 1011.2 |
| 20260507142911 | 45 | 81 | 1.0 | 6.0 | 0.06 | 0.81 | 0.54 | 99 | 1011.3 |
| 20260507141803 | 46 | 106 | 1.0 | 3.0 | 0.04 | 0.79 | 0.52 | 99 | 1011.1 |
| 20260507140903 | 45 | 120 | 0.0 | 2.0 | 0.02 | 0.78 | 0.51 | 99 | 1011.0 |
| 20260507140006 | 45 | 120 | 0.0 | 3.0 | 0.02 | 0.77 | 0.50 | 99 | 1010.7 |
| 20260507135403 | 45 | 97 | 1.0 | 3.0 | 0.01 | 0.76 | 0.48 | 99 | 1011.0 |
| 20260507134503 | 44 | 64 | 2.0 | 6.0 | 0.01 | 0.76 | 0.48 | 99 | 1011.1 |
| 20260507133814 | 44 | 70 | 2.0 | 8.0 | 0.01 | 0.76 | 0.48 | 99 | 1010.8 |
| 20260507132704 | 45 | 103 | 1.0 | 3.0 | 0.02 | 0.76 | 0.48 | 99 | 1010.8 |
| 20260507132011 | 45 | 109 | 1.0 | 3.0 | 0.02 | 0.76 | 0.48 | 99 | 1010.6 |
| 20260507130906 | 45 | 80 | 1.0 | 4.0 | 0.04 | 0.76 | 0.48 | 99 | 1010.7 |
| 20260507130005 | 46 | 96 | 1.0 | 2.0 | 0.02 | 0.74 | 0.47 | 99 | 1010.5 |
| 20260507125403 | 45 | 92 | 1.0 | 4.0 | 0.04 | 0.74 | 0.47 | 99 | 1010.3 |
| 20260507124505 | 45 | 70 | 2.0 | 4.0 | 0.04 | 0.74 | 0.47 | 99 | 1010.4 |
| 20260507123620 | 45 | 85 | 1.0 | 4.0 | 0.04 | 0.74 | 0.47 | 99 | 1010.3 |
| 20260507122705 | 45 | 60 | 2.0 | 4.0 | 0.04 | 0.73 | 0.46 | 99 | 1009.9 |
| 20260507121805 | 45 | 94 | 1.0 | 4.0 | 0.04 | 0.73 | 0.46 | 99 | 1009.8 |
| 20260507120905 | 45 | 85 | 1.0 | 4.0 | 0.02 | 0.72 | 0.45 | 99 | 1010.0 |
| 20260507120005 | 46 | 89 | 1.0 | 4.0 | 0.04 | 0.72 | 0.45 | 99 | 1009.8 |
| 20260507115610 | 45 | 82 | 2.0 | 4.0 | 0.02 | 0.71 | 0.44 | 99 | 1009.9 |
| 20260507114503 | 45 | 58 | 2.0 | 6.0 | 0.02 | 0.71 | 0.44 | 99 | 1009.8 |
| 20260507113604 | 46 | 76 | 1.0 | 4.0 | 0.04 | 0.71 | 0.44 | 99 | 1009.7 |
| 20260507112703 | 45 | 68 | 2.0 | 6.0 | 0.02 | 0.70 | 0.43 | 99 | 1009.6 |
| 20260507111803 | 45 | 73 | 1.0 | 3.0 | 0.04 | 0.70 | 0.43 | 99 | 1009.4 |
| 20260507110905 | 45 | 69 | 2.0 | 6.0 | 0.05 | 0.70 | 0.43 | 99 | 1009.5 |
| 20260507110211 | 45 | 54 | 2.0 | 6.0 | 0.04 | 0.69 | 0.41 | 99 | 1009.5 |
| 20260507105403 | 46 | 64 | 1.0 | 6.0 | 0.05 | 0.69 | 0.41 | 99 | 1009.5 |
| 20260507104504 | 46 | 78 | 1.0 | 4.0 | 0.06 | 0.69 | 0.41 | 99 | 1009.2 |
| 20260507103810 | 46 | 90 | 1.0 | 4.0 | 0.06 | 0.67 | 0.40 | 99 | 1009.0 |
| 20260507102703 | 46 | 109 | 0.0 | 3.0 | 0.07 | 0.67 | 0.40 | 99 | 1009.1 |
| 20260507101804 | 46 | 79 | 1.0 | 3.0 | 0.06 | 0.66 | 0.39 | 99 | 1009.0 |
| 20260507101110 | 46 | 69 | 1.0 | 4.0 | 0.06 | 0.65 | 0.38 | 99 | 1009.0 |
| 20260507100005 | 45 | 55 | 2.0 | 6.0 | 0.06 | 0.64 | 0.37 | 99 | 1008.8 |
| 20260507095610 | 45 | 50 | 2.0 | 6.0 | 0.07 | 0.64 | 0.37 | 99 | 1008.7 |
| 20260507094503 | 47 | 138 | 0.0 | 2.0 | 0.07 | 0.63 | 0.35 | 99 | 1008.5 |
| 20260507093603 | 47 | 149 | 0.0 | 2.0 | 0.07 | 0.61 | 0.34 | 99 | 1008.5 |